Home   Weather   Innsbruck   Past weeks
Flag for Austria

Past Weather in Innsbruck, Tyrol, Austria — Yesterday and Last 2 Weeks

Now
53 °F

Scattered clouds.


Feels Like: 52 °F
Forecast: 40 / 33 °F
Wind: 5 mph from East

Location: Innsbruck-Flughafen

Current Time: Mar 29, 2020 at 1:09:15 pm

Latest Report: Mar 29, 2020 at 12:00 pm


Visibility: 17 mi

Pressure: 29.96 "Hg (27.98 "Hg at 570m altitude)

Humidity: 55%

Dew Point: 37 °F

Location of InnsbruckLocation

Past Weather in Innsbruck — Graph

°F

Innsbruck Temperature Yesterday

Maximum temperature yesterday: 65 °F (at 2:00 pm)
Minimum temperature yesterday: 36 °F (at 7:00 am)
Average temperature yesterday: 52 °F

High & Low Weather Summary for the Past Weeks

 TemperatureHumidityPressure
High69 °F (Mar 20, 3:00 pm)92% (Mar 15, 5:00 am)30.54 "Hg (Mar 15, 5:00 am)
Low22 °F (Mar 24, 6:00 am)20% (Mar 16, 4:00 pm)29.80 "Hg (Mar 27, 4:00 pm)
Average44 °F59%30.20 "Hg
* Reported Mar 14 10:00 am — Mar 29 11:00 am, Innsbruck. Weather by CustomWeather, © 2020

Note: Actual official high and low records may vary slightly from our data, if they occured in-between our weather recording intervals... More about our weather records

Innsbruck Weather History for the Previous 24 Hours

Scroll right to see more
 ConditionsComfort  
Time TempWeatherWind HumidityBarometerVisibility
11:00 am
Sun, Mar 29
49 °FScattered clouds.6 mph57%29.99 "Hg19 mi
10:00 am45 °FScattered clouds.2 mph68%30.02 "Hg16 mi
9:00 am40 °FPartly sunny.2 mph81%30.05 "Hg14 mi
8:00 am37 °FPartly sunny.1 mph81%30.07 "Hg14 mi
7:00 am35 °FScattered clouds.1 mph84%30.08 "Hg14 mi
6:00 am37 °FPassing clouds.1 mph80%30.07 "Hg16 mi
5:00 am38 °FPassing clouds.1 mph79%30.06 "Hg17 mi
4:00 am40 °FPassing clouds.1 mph74%30.05 "Hg17 mi
3:00 am42 °FPassing clouds.1 mph73%30.05 "Hg17 mi
1:00 am43 °FPassing clouds.1 mph70%30.05 "Hg17 mi
11:00 pm
Sat, Mar 28
50 °FPassing clouds.1 mph55%30.01 "Hg19 mi
10:00 pm53 °FPassing clouds.1 mph52%29.99 "Hg17 mi
9:00 pm54 °FPassing clouds.2 mph49%29.97 "Hg18 mi
7:00 pm58 °FPassing clouds.6 mph41%29.90 "Hg19 mi
6:00 pm61 °FScattered clouds.3 mph39%29.86 "Hg19 mi
5:00 pm64 °FScattered clouds.6 mph36%29.83 "Hg22 mi
4:00 pm65 °FScattered clouds.2 mph31%29.82 "Hg28 mi
2:00 pm65 °FPassing clouds.2 mph31%29.85 "Hg31 mi
1:00 pm64 °FPassing clouds.2 mph36%29.87 "Hg25 mi
Weather by CustomWeather, © 2020

See weather overview

Advertising